User: anonymous   Login
Location: Caltech
(34.1382°N, 118.1253°W)
Time: 08:58:39
(UTC-07:00)
Language:

ADEOS II - Orbit

View from above orbital plane
View from above orbital plane
View from above satellite
View from above satellite

Ground track
Ground track

The orbit data is extracted from the following two-line orbital elements,

1 27597U 02056A   15117.65849104  .00000342  00000-0  15715-3 0  9996
2 27597 098.2854 113.7835 0002270 098.4142 032.7559 14.27065747643945
Epoch (UTC): 27 April 2015 15:48:13
Eccentricity: 0.0002270
inclination: 98.2854°
perigee height: 800 km
apogee height: 803 km
right ascension of ascending node: 113.7835°
argument of perigee: 98.4142°
revolutions per day: 14.27065747
mean anomaly at epoch: 32.7559°
orbit number at epoch: 64394

The dashed part of the orbit path shows where the satellite is in the earth's shadow,  

DLR